Wetterdaten: aktuell Mittwoch, 29.06.2022 09:10
Datum Zeit Temp. A. Temp. A. min Feuchte A. Luftdruck Regen Wind Richtung Richtung Sonnenschein Solar Taupunkt Windchill Windben
29.06.2022 09:10 19,7 C 19,6 C 82 % 1012,5 hPa 0,0 l/m 3,2 km/h (1 Bft) S-SW 202 0 min 0 W/m 16,5 C 19,7 C 6,4 km/h (2 Bft)
29.06.2022 09:07 19,6 C 19,5 C 83 % 1012,5 hPa 0,0 l/m 1,7 km/h (1 Bft) S-SW 203 0 min 0 W/m 16,6 C 19,6 C 6,4 km/h (2 Bft)
29.06.2022 09:00 19,5 C 19,4 C 83 % 1012,5 hPa 0,0 l/m 3,2 km/h (1 Bft) SW 217 0 min 0 W/m 16,5 C 19,5 C 8,0 km/h (2 Bft)
29.06.2022 08:55 19,4 C 19,4 C 83 % 1012,5 hPa 0,0 l/m 1,1 km/h (1 Bft) S 184 0 min 0 W/m 16,4 C 19,4 C 3,2 km/h (1 Bft)
29.06.2022 08:51 19,5 C 19,5 C 82 % 1012,5 hPa 0,0 l/m 2,5 km/h (1 Bft) S-SW 192 0 min 0 W/m 16,3 C 19,5 C 4,8 km/h (1 Bft)
29.06.2022 08:45 19,6 C 19,6 C 81 % 1012,5 hPa 0,0 l/m 1,8 km/h (1 Bft) S 178 0 min 0 W/m 16,2 C 19,6 C 8,0 km/h (2 Bft)
29.06.2022 08:40 19,7 C 19,5 C 83 % 1012,5 hPa 0,0 l/m 0,6 km/h (0 Bft) S-SO 155 0 min 0 W/m 16,7 C 19,7 C 3,2 km/h (1 Bft)
29.06.2022 08:35 19,6 C 19,5 C 83 % 1012,6 hPa 0,0 l/m 1,1 km/h (1 Bft) S-SO 155 0 min 0 W/m 16,6 C 19,6 C 4,8 km/h (1 Bft)
29.06.2022 08:31 19,6 C 19,5 C 81 % 1012,6 hPa 0,0 l/m 4,0 km/h (1 Bft) S-SO 153 0 min 0 W/m 16,2 C 19,6 C 9,7 km/h (2 Bft)
29.06.2022 08:25 19,5 C 18,9 C 83 % 1012,5 hPa 0,0 l/m 2,9 km/h (1 Bft) S-SO 159 0 min 0 W/m 16,5 C 19,5 C 8,0 km/h (2 Bft)
29.06.2022 08:20 18,9 C 18,6 C 85 % 1012,5 hPa 0,0 l/m 0,1 km/h (0 Bft) S-SW 212 0 min 0 W/m 16,3 C 18,9 C 4,8 km/h (1 Bft)
29.06.2022 08:15 18,6 C 18,5 C 86 % 1012,5 hPa 0,0 l/m 0,0 km/h (0 Bft) SW 216 0 min 0 W/m 16,2 C 18,6 C 0,0 km/h (0 Bft)
29.06.2022 08:11 18,5 C 18,4 C 85 % 1012,4 hPa 0,0 l/m 0,2 km/h (0 Bft) SW 216 0 min 0 W/m 15,9 C 18,5 C 3,2 km/h (1 Bft)
29.06.2022 08:05 18,4 C 18,2 C 87 % 1012,5 hPa 0,0 l/m 0,3 km/h (0 Bft) SW 217 0 min 0 W/m 16,2 C 18,4 C 4,8 km/h (1 Bft)
29.06.2022 08:00 18,2 C 18,1 C 87 % 1012,5 hPa 0,0 l/m 0,0 km/h (0 Bft) SW 218 0 min 0 W/m 16,0 C 18,2 C 0,0 km/h (0 Bft)
29.06.2022 07:55 18,1 C 18,1 C 88 % 1012,5 hPa 0,0 l/m 0,0 km/h (0 Bft) W-SW 243 0 min 0 W/m 16,1 C 18,1 C 0,0 km/h (0 Bft)
29.06.2022 07:51 18,1 C 18,0 C 87 % 1012,6 hPa 0,0 l/m 0,0 km/h (0 Bft) W 262 0 min 0 W/m 15,9 C 18,1 C 0,0 km/h (0 Bft)
29.06.2022 07:45 18,1 C 17,9 C 86 % 1012,5 hPa 0,0 l/m 0,0 km/h (0 Bft) NW 317 0 min 0 W/m 15,7 C 18,1 C 0,0 km/h (0 Bft)
29.06.2022 07:40 17,9 C 17,8 C 87 % 1012,5 hPa 0,0 l/m 0,0 km/h (0 Bft) N-NW 345 0 min 0 W/m 15,7 C 17,9 C 0,0 km/h (0 Bft)
29.06.2022 07:35 17,8 C 17,6 C 87 % 1012,5 hPa 0,0 l/m 0,0 km/h (0 Bft) N-NW 347 0 min 0 W/m 15,6 C 17,8 C 0,0 km/h (0 Bft)
29.06.2022 07:31 17,6 C 17,3 C 87 % 1012,5 hPa 0,0 l/m 0,0 km/h (0 Bft) N-NW 347 0 min 0 W/m 15,4 C 17,6 C 0,0 km/h (0 Bft)
29.06.2022 07:25 17,3 C 17,1 C 90 % 1012,4 hPa 0,0 l/m 0,0 km/h (0 Bft) N-NW 347 0 min 0 W/m 15,6 C 17,3 C 0,0 km/h (0 Bft)
29.06.2022 07:20 17,1 C 16,9 C 89 % 1012,4 hPa 0,0 l/m 0,0 km/h (0 Bft) N-NW 348 0 min 0 W/m 15,3 C 17,1 C 0,0 km/h (0 Bft)
29.06.2022 07:15 17,0 C 16,9 C 90 % 1012,5 hPa 0,0 l/m 0,0 km/h (0 Bft) N-NW 348 0 min 0 W/m 15,3 C 17,0 C 0,0 km/h (0 Bft)
29.06.2022 07:10 16,9 C 16,7 C 90 % 1012,5 hPa 0,0 l/m 0,0 km/h (0 Bft) N-NW 348 0 min 0 W/m 15,2 C 16,9 C 0,0 km/h (0 Bft)
29.06.2022 07:05 16,7 C 16,6 C 91 % 1012,5 hPa 0,0 l/m 0,0 km/h (0 Bft) N-NW 347 0 min 0 W/m 15,2 C 16,7 C 0,0 km/h (0 Bft)
29.06.2022 07:00 16,6 C 16,6 C 90 % 1012,5 hPa 0,0 l/m 0,0 km/h (0 Bft) N-NW 347 0 min 0 W/m 15,0 C 16,6 C 0,0 km/h (0 Bft)
29.06.2022 06:55 16,6 C 16,5 C 90 % 1012,5 hPa 0,0 l/m 0,0 km/h (0 Bft) N-NW 345 0 min 0 W/m 15,0 C 16,6 C 0,0 km/h (0 Bft)
29.06.2022 06:50 16,5 C 16,4 C 90 % 1012,4 hPa 0,0 l/m 0,0 km/h (0 Bft) N-NW 345 0 min 0 W/m 14,9 C 16,5 C 0,0 km/h (0 Bft)
29.06.2022 06:45 16,4 C 16,3 C 90 % 1012,5 hPa 0,0 l/m 0,0 km/h (0 Bft) N-NW 343 0 min 0 W/m 14,8 C 16,4 C 0,0 km/h (0 Bft)
29.06.2022 06:40 16,3 C 16,1 C 91 % 1012,4 hPa 0,0 l/m 0,0 km/h (0 Bft) N-NW 342 0 min 0 W/m 14,8 C 16,3 C 0,0 km/h (0 Bft)
29.06.2022 06:35 16,1 C 15,9 C 92 % 1012,4 hPa 0,0 l/m 0,0 km/h (0 Bft) N-NW 342 0 min 0 W/m 14,8 C 16,1 C 0,0 km/h (0 Bft)
29.06.2022 06:30 15,9 C 15,9 C 92 % 1012,5 hPa 0,0 l/m 0,0 km/h (0 Bft) N-NW 342 0 min 0 W/m 14,6 C 15,9 C 0,0 km/h (0 Bft)
29.06.2022 06:25 15,9 C 15,9 C 92 % 1012,5 hPa 0,0 l/m 0,0 km/h (0 Bft) N-NW 342 0 min 0 W/m 14,6 C 15,9 C 0,0 km/h (0 Bft)
29.06.2022 06:20 16,0 C 15,9 C 92 % 1012,5 hPa 0,0 l/m 0,0 km/h (0 Bft) N-NW 342 0 min 0 W/m 14,7 C 16,0 C 0,0 km/h (0 Bft)
29.06.2022 06:15 15,9 C 15,8 C 92 % 1012,4 hPa 0,0 l/m 0,0 km/h (0 Bft) N-NW 342 0 min 0 W/m 14,6 C 15,9 C 0,0 km/h (0 Bft)
29.06.2022 06:10 15,8 C 15,8 C 92 % 1012,4 hPa 0,0 l/m 0,0 km/h (0 Bft) N-NW 342 0 min 0 W/m 14,5 C 15,8 C 0,0 km/h (0 Bft)
29.06.2022 06:05 15,9 C 15,9 C 92 % 1012,4 hPa 0,0 l/m 0,0 km/h (0 Bft) N-NW 342 0 min 0 W/m 14,6 C 15,9 C 0,0 km/h (0 Bft)
29.06.2022 06:00 16,0 C 15,9 C 92 % 1012,3 hPa 0,0 l/m 0,0 km/h (0 Bft) N-NW 342 0 min 0 W/m 14,7 C 16,0 C 0,0 km/h (0 Bft)
29.06.2022 05:55 16,1 C 16,1 C 91 % 1012,4 hPa 0,0 l/m 0,0 km/h (0 Bft) N-NW 342 0 min 0 W/m 14,6 C 16,1 C 0,0 km/h (0 Bft)
29.06.2022 05:50 16,1 C 16,1 C 91 % 1012,4 hPa 0,0 l/m 0,0 km/h (0 Bft) N-NW 342 0 min 0 W/m 14,6 C 16,1 C 0,0 km/h (0 Bft)
29.06.2022 05:45 16,2 C 16,2 C 91 % 1012,4 hPa 0,0 l/m 0,0 km/h (0 Bft) N-NW 342 0 min 0 W/m 14,7 C 16,2 C 0,0 km/h (0 Bft)
29.06.2022 05:40 16,3 C 16,2 C 91 % 1012,4 hPa 0,0 l/m 0,0 km/h (0 Bft) N-NW 342 0 min 0 W/m 14,8 C 16,3 C 0,0 km/h (0 Bft)
29.06.2022 05:35 16,2 C 16,2 C 91 % 1012,4 hPa 0,0 l/m 0,0 km/h (0 Bft) N-NW 342 0 min 0 W/m 14,7 C 16,2 C 0,0 km/h (0 Bft)
29.06.2022 05:30 16,2 C 16,2 C 90 % 1012,4 hPa 0,0 l/m 0,0 km/h (0 Bft) N-NW 342 0 min 0 W/m 14,6 C 16,2 C 0,0 km/h (0 Bft)
29.06.2022 05:25 16,2 C 16,2 C 90 % 1012,5 hPa 0,0 l/m 0,0 km/h (0 Bft) N-NW 342 0 min 0 W/m 14,6 C 16,2 C 0,0 km/h (0 Bft)
29.06.2022 05:20 16,2 C 16,2 C 90 % 1012,5 hPa 0,0 l/m 0,0 km/h (0 Bft) N-NW 342 0 min 0 W/m 14,6 C 16,2 C 0,0 km/h (0 Bft)
29.06.2022 05:15 16,3 C 16,2 C 90 % 1012,5 hPa 0,0 l/m 0,0 km/h (0 Bft) N-NW 342 0 min 0 W/m 14,7 C 16,3 C 0,0 km/h (0 Bft)
29.06.2022 05:10 16,3 C 16,3 C 89 % 1012,4 hPa 0,0 l/m 0,0 km/h (0 Bft) N-NW 342 0 min 0 W/m 14,5 C 16,3 C 0,0 km/h (0 Bft)
29.06.2022 05:05 16,4 C 16,4 C 89 % 1012,5 hPa 0,0 l/m 0,0 km/h (0 Bft) N-NW 342 0 min 0 W/m 14,6 C 16,4 C 0,0 km/h (0 Bft)
29.06.2022 05:00 16,5 C 16,5 C 89 % 1012,4 hPa 0,0 l/m 0,0 km/h (0 Bft) N-NW 342 0 min 0 W/m 14,7 C 16,5 C 0,0 km/h (0 Bft)
29.06.2022 04:55 16,6 C 16,6 C 89 % 1012,5 hPa 0,0 l/m 0,0 km/h (0 Bft) N-NW 342 0 min 0 W/m 14,8 C 16,6 C 0,0 km/h (0 Bft)
29.06.2022 04:50 16,7 C 16,6 C 88 % 1012,6 hPa 0,0 l/m 0,0 km/h (0 Bft) N-NW 342 0 min 0 W/m 14,7 C 16,7 C 0,0 km/h (0 Bft)
29.06.2022 04:45 16,7 C 16,4 C 89 % 1012,7 hPa 0,0 l/m 0,0 km/h (0 Bft) N-NW 342 0 min 0 W/m 14,9 C 16,7 C 0,0 km/h (0 Bft)
29.06.2022 04:40 16,4 C 16,4 C 90 % 1012,8 hPa 0,0 l/m 0,0 km/h (0 Bft) N-NW 342 0 min 0 W/m 14,8 C 16,4 C 0,0 km/h (0 Bft)
29.06.2022 04:35 16,4 C 16,3 C 89 % 1012,8 hPa 0,0 l/m 0,0 km/h (0 Bft) N-NW 342 0 min 0 W/m 14,6 C 16,4 C 0,0 km/h (0 Bft)
29.06.2022 04:30 16,3 C 16,3 C 89 % 1012,7 hPa 0,0 l/m 0,0 km/h (0 Bft) N-NW 342 0 min 0 W/m 14,5 C 16,3 C 0,0 km/h (0 Bft)
29.06.2022 04:25 16,3 C 16,2 C 89 % 1012,8 hPa 0,0 l/m 0,0 km/h (0 Bft) N-NW 342 0 min 0 W/m 14,5 C 16,3 C 0,0 km/h (0 Bft)
29.06.2022 04:20 16,2 C 16,2 C 90 % 1012,8 hPa 0,0 l/m 0,0 km/h (0 Bft) N-NW 342 0 min 0 W/m 14,6 C 16,2 C 0,0 km/h (0 Bft)
29.06.2022 04:15 16,3 C 16,3 C 89 % 1012,8 hPa 0,0 l/m 0,0 km/h (0 Bft) N-NW 342 0 min 0 W/m 14,5 C 16,3 C 0,0 km/h (0 Bft)
29.06.2022 04:10 16,3 C 16,3 C 89 % 1012,8 hPa 0,0 l/m 0,0 km/h (0 Bft) N-NW 342 0 min 0 W/m 14,5 C 16,3 C 0,0 km/h (0 Bft)
29.06.2022 04:05 16,3 C 16,3 C 89 % 1012,9 hPa 0,0 l/m 0,0 km/h (0 Bft) N-NW 342 0 min 0 W/m 14,5 C 16,3 C 0,0 km/h (0 Bft)
29.06.2022 04:00 16,4 C 16,4 C 89 % 1012,8 hPa 0,0 l/m 0,0 km/h (0 Bft) N-NW 342 0 min 0 W/m 14,6 C 16,4 C 0,0 km/h (0 Bft)
29.06.2022 03:55 16,4 C 16,4 C 89 % 1012,8 hPa 0,0 l/m 0,0 km/h (0 Bft) N-NW 342 0 min 0 W/m 14,6 C 16,4 C 0,0 km/h (0 Bft)
29.06.2022 03:50 16,4 C 16,4 C 89 % 1012,8 hPa 0,0 l/m 0,0 km/h (0 Bft) N-NW 342 0 min 0 W/m 14,6 C 16,4 C 0,0 km/h (0 Bft)
29.06.2022 03:45 16,4 C 16,4 C 89 % 1012,8 hPa 0,0 l/m 0,0 km/h (0 Bft) N-NW 342 0 min 0 W/m 14,6 C 16,4 C 0,0 km/h (0 Bft)
29.06.2022 03:40 16,4 C 16,4 C 89 % 1012,8 hPa 0,0 l/m 0,9 km/h (0 Bft) N-NW 342 0 min 0 W/m 14,6 C 16,4 C 4,8 km/h (1 Bft)
29.06.2022 03:35 16,4 C 16,4 C 89 % 1012,7 hPa 0,0 l/m 0,0 km/h (0 Bft) N-NW 331 0 min 0 W/m 14,6 C 16,4 C 0,0 km/h (0 Bft)
29.06.2022 03:30 16,5 C 16,5 C 89 % 1012,7 hPa 0,0 l/m 0,2 km/h (0 Bft) N-NW 329 0 min 0 W/m 14,7 C 16,5 C 4,8 km/h (1 Bft)
29.06.2022 03:25 16,6 C 16,5 C 88 % 1012,7 hPa 0,0 l/m 0,0 km/h (0 Bft) N-NW 329 0 min 0 W/m 14,6 C 16,6 C 1,6 km/h (1 Bft)
29.06.2022 03:20 16,5 C 16,5 C 88 % 1012,7 hPa 0,0 l/m 1,5 km/h (1 Bft) N-NW 329 0 min 0 W/m 14,5 C 16,5 C 4,8 km/h (1 Bft)
29.06.2022 03:15 16,6 C 16,6 C 88 % 1012,8 hPa 0,0 l/m 0,9 km/h (0 Bft) N-NW 329 0 min 0 W/m 14,6 C 16,6 C 4,8 km/h (1 Bft)
29.06.2022 03:10 16,7 C 16,7 C 88 % 1012,9 hPa 0,0 l/m 0,9 km/h (0 Bft) N-NW 329 0 min 0 W/m 14,7 C 16,7 C 4,8 km/h (1 Bft)
29.06.2022 03:05 16,7 C 16,7 C 88 % 1012,8 hPa 0,0 l/m 1,2 km/h (1 Bft) N-NW 328 0 min 0 W/m 14,7 C 16,7 C 4,8 km/h (1 Bft)
29.06.2022 03:00 16,7 C 16,7 C 88 % 1012,8 hPa 0,0 l/m 0,0 km/h (0 Bft) N-NW 328 0 min 0 W/m 14,7 C 16,7 C 0,0 km/h (0 Bft)
29.06.2022 02:55 16,8 C 16,8 C 88 % 1012,9 hPa 0,0 l/m 0,0 km/h (0 Bft) N-NW 328 0 min 0 W/m 14,8 C 16,8 C 0,0 km/h (0 Bft)
29.06.2022 02:50 16,8 C 16,8 C 88 % 1013,1 hPa 0,0 l/m 0,0 km/h (0 Bft) N-NW 328 0 min 0 W/m 14,8 C 16,8 C 0,0 km/h (0 Bft)
29.06.2022 02:45 16,9 C 16,9 C 87 % 1013,1 hPa 0,0 l/m 0,0 km/h (0 Bft) N-NW 328 0 min 0 W/m 14,7 C 16,9 C 0,0 km/h (0 Bft)
29.06.2022 02:40 16,9 C 16,9 C 87 % 1013,2 hPa 0,0 l/m 0,0 km/h (0 Bft) N-NW 328 0 min 0 W/m 14,7 C 16,9 C 0,0 km/h (0 Bft)
29.06.2022 02:35 17,1 C 17,0 C 88 % 1013,2 hPa 0,0 l/m 0,0 km/h (0 Bft) N-NW 328 0 min 0 W/m 15,1 C 17,1 C 0,0 km/h (0 Bft)
29.06.2022 02:30 17,0 C 16,9 C 88 % 1013,2 hPa 0,0 l/m 0,0 km/h (0 Bft) N-NW 328 0 min 0 W/m 15,0 C 17,0 C 0,0 km/h (0 Bft)
29.06.2022 02:25 17,1 C 17,1 C 87 % 1013,3 hPa 0,0 l/m 0,0 km/h (0 Bft) N-NW 328 0 min 0 W/m 14,9 C 17,1 C 0,0 km/h (0 Bft)
29.06.2022 02:20 17,2 C 17,2 C 87 % 1013,4 hPa 0,0 l/m 0,0 km/h (0 Bft) N-NW 328 0 min 0 W/m 15,0 C 17,2 C 0,0 km/h (0 Bft)
29.06.2022 02:15 17,2 C 17,2 C 87 % 1013,4 hPa 0,0 l/m 0,0 km/h (0 Bft) N-NW 328 0 min 0 W/m 15,0 C 17,2 C 0,0 km/h (0 Bft)
29.06.2022 02:10 17,2 C 17,2 C 86 % 1013,4 hPa 0,0 l/m 0,0 km/h (0 Bft) N-NW 328 0 min 0 W/m 14,8 C 17,2 C 0,0 km/h (0 Bft)
29.06.2022 02:05 17,3 C 17,2 C 86 % 1013,4 hPa 0,0 l/m 0,0 km/h (0 Bft) N-NW 328 0 min 0 W/m 14,9 C 17,3 C 0,0 km/h (0 Bft)
29.06.2022 02:00 17,2 C 17,2 C 86 % 1013,3 hPa 0,0 l/m 0,0 km/h (0 Bft) N-NW 328 0 min 0 W/m 14,8 C 17,2 C 0,0 km/h (0 Bft)
29.06.2022 01:55 17,3 C 17,3 C 86 % 1013,4 hPa 0,0 l/m 0,3 km/h (0 Bft) N-NW 328 0 min 0 W/m 14,9 C 17,3 C 3,2 km/h (1 Bft)
29.06.2022 01:50 17,5 C 17,5 C 85 % 1013,4 hPa 0,0 l/m 1,3 km/h (1 Bft) N-NW 328 0 min 0 W/m 14,9 C 17,5 C 3,2 km/h (1 Bft)
29.06.2022 01:45 17,7 C 17,7 C 85 % 1013,4 hPa 0,0 l/m 1,9 km/h (1 Bft) N-NW 328 0 min 0 W/m 15,1 C 17,7 C 4,8 km/h (1 Bft)
29.06.2022 01:40 17,7 C 17,7 C 84 % 1013,4 hPa 0,0 l/m 0,3 km/h (0 Bft) N-NW 328 0 min 0 W/m 15,0 C 17,7 C 3,2 km/h (1 Bft)
29.06.2022 01:35 17,7 C 17,7 C 85 % 1013,4 hPa 0,0 l/m 0,0 km/h (0 Bft) N-NW 328 0 min 0 W/m 15,1 C 17,7 C 0,0 km/h (0 Bft)
29.06.2022 01:30 17,7 C 17,6 C 85 % 1013,5 hPa 0,0 l/m 0,0 km/h (0 Bft) N-NW 328 0 min 0 W/m 15,1 C 17,7 C 0,0 km/h (0 Bft)
29.06.2022 01:25 17,7 C 17,6 C 85 % 1013,5 hPa 0,0 l/m 0,0 km/h (0 Bft) N-NW 328 0 min 0 W/m 15,1 C 17,7 C 0,0 km/h (0 Bft)
29.06.2022 01:20 17,7 C 17,7 C 85 % 1013,4 hPa 0,0 l/m 0,0 km/h (0 Bft) N-NW 328 0 min 0 W/m 15,1 C 17,7 C 0,0 km/h (0 Bft)
29.06.2022 01:15 17,8 C 17,7 C 85 % 1013,3 hPa 0,0 l/m 0,4 km/h (0 Bft) N-NW 328 0 min 0 W/m 15,2 C 17,8 C 3,2 km/h (1 Bft)
29.06.2022 01:10 17,8 C 17,8 C 84 % 1013,4 hPa 0,0 l/m 1,3 km/h (1 Bft) NW 324 0 min 0 W/m 15,1 C 17,8 C 4,8 km/h (1 Bft)
29.06.2022 01:05 18,0 C 18,0 C 84 % 1013,4 hPa 0,0 l/m 1,4 km/h (1 Bft) NW 323 0 min 0 W/m 15,3 C 18,0 C 4,8 km/h (1 Bft)
29.06.2022 01:00 18,1 C 18,1 C 83 % 1013,5 hPa 0,0 l/m 0,9 km/h (0 Bft) NW 323 0 min 0 W/m 15,2 C 18,1 C 4,8 km/h (1 Bft)
29.06.2022 00:55 18,2 C 18,2 C 83 % 1013,4 hPa 0,0 l/m 0,0 km/h (0 Bft) NW 323 0 min 0 W/m 15,3 C 18,2 C 0,0 km/h (0 Bft)
29.06.2022 00:50 18,2 C 18,1 C 84 % 1013,5 hPa 0,0 l/m 0,0 km/h (0 Bft) NW 323 0 min 0 W/m 15,4 C 18,2 C 0,0 km/h (0 Bft)
29.06.2022 00:45 18,1 C 18,1 C 84 % 1013,4 hPa 0,0 l/m 0,0 km/h (0 Bft) NW 323 0 min 0 W/m 15,4 C 18,1 C 0,0 km/h (0 Bft)
29.06.2022 00:40 18,2 C 18,2 C 84 % 1013,4 hPa 0,0 l/m 0,5 km/h (0 Bft) NW 323 0 min 0 W/m 15,4 C 18,2 C 3,2 km/h (1 Bft)
29.06.2022 00:35 18,2 C 18,2 C 83 % 1013,4 hPa 0,0 l/m 2,6 km/h (1 Bft) NW 323 0 min 0 W/m 15,3 C 18,2 C 4,8 km/h (1 Bft)
29.06.2022 00:30 18,3 C 18,3 C 83 % 1013,4 hPa 0,0 l/m 2,0 km/h (1 Bft) NW 319 0 min 0 W/m 15,4 C 18,3 C 4,8 km/h (1 Bft)
29.06.2022 00:25 18,4 C 18,4 C 83 % 1013,6 hPa 0,0 l/m 1,2 km/h (1 Bft) NW 319 0 min 0 W/m 15,5 C 18,4 C 3,2 km/h (1 Bft)
29.06.2022 00:20 18,6 C 18,5 C 82 % 1013,6 hPa 0,0 l/m 1,2 km/h (1 Bft) NW 319 0 min 0 W/m 15,5 C 18,6 C 3,2 km/h (1 Bft)
29.06.2022 00:15 18,7 C 18,7 C 82 % 1013,5 hPa 0,0 l/m 1,6 km/h (1 Bft) NW 319 0 min 0 W/m 15,6 C 18,7 C 4,8 km/h (1 Bft)
29.06.2022 00:10 18,9 C 18,9 C 81 % 1013,4 hPa 0,0 l/m 0,5 km/h (0 Bft) NW 319 0 min 0 W/m 15,6 C 18,9 C 4,8 km/h (1 Bft)
29.06.2022 00:05 19,0 C 18,9 C 81 % 1013,5 hPa 0,0 l/m 0,0 km/h (0 Bft) NW 314 0 min 0 W/m 15,7 C 19,0 C 0,0 km/h (0 Bft)
29.06.2022 00:00 19,1 C 19,1 C 81 % 1013,6 hPa 0,0 l/m 0,0 km/h (0 Bft) NW 314 0 min 0 W/m 15,8 C 19,1 C 0,0 km/h (0 Bft)
_ Min-Zeit 06:10 06:10 00:00 06:00 - 00:00 - - - - 04:05 06:10 00:00
Minimum _ 15,8 C 15,8 C 81 % 1012,3 hPa - 0,0 km/h (0 Bft) - - - - 14,5 C 15,8 C 0,0 km/h (0 Bft)
_ Max-Zeit 08:31 08:45 06:00 00:00 00:00 08:31 - - 00:00 00:00 08:40 08:40 08:31
Maximum _ 19,7 C 19,6 C 92 % 1013,6 hPa 0,0 l/m 4,0 km/h
S-SO (1 Bft)
- - 0 min 0 W/m 16,7 C 19,7 C 9,7 km/h
S-SO (2 Bft)
Durchschnitt _ 17,3 C 17,2 C 87 % 1012,8 hPa #0,0 l/m 0,4 km/h (0 Bft) NW - #0 min. 0 W/m 15,1 C 17,3 C 1,5 km/h (1 Bft)